Orbital Elements at Epoch 2459200.5 (2020-Dec-17.0) TDB
Reference: JPL 17 (heliocentric ecliptic J2000)
Element | Value | Uncertainty (1-sigma) | Units |
e | .1886348947267132 | 3.1106e-08 | |
a | 2.423491049485703 | 1.0737e-08 | au |
q | 1.966336070494836 | 7.4831e-08 | au |
i | 1.546618596157441 | 6.1482e-06 | deg |
node | 37.63772915759653 | 0.00012086 | deg |
peri | 282.1359307323536 | 0.00012199 | deg |
M | 79.1190874708592 | 1.6945e-05 | deg |
tp | 2458897.641807631247 (2020-Feb-18.14180763) | 6.4209e-05 | TDB |
period | 1378.035980166079 3.77 | 9.1581e-06 2.507e-08 | d yr |
n | .2612413646533476 | 1.7361e-09 | deg/d |
Q | 2.88064602847657 | 1.2763e-08 | au |
|
| | Orbit Determination Parameters
Additional Information
|